| time (UTC) | temp C | wind direction | speed KPH | gust KPH | rain 1hr cm | rain 24hr cm | rain mn cm | humidity % | barometer mb |
| 20260510154007 | 16 | 273 | 8.0 | 29.0 | 0.00 | 1.02 | 0.03 | 79 | 1011.9 |
| 20260510153508 | 16 | 196 | 9.7 | 29.0 | 0.00 | 1.04 | 0.03 | 79 | 1012.1 |
| 20260510153036 | 16 | 215 | 14.5 | 27.4 | 0.00 | 1.04 | 0.03 | 81 | 1012.2 |
| 20260510152517 | 16 | 232 | 8.0 | 30.6 | 0.00 | 1.07 | 0.03 | 79 | 1012.1 |
| 20260510152011 | 16 | 189 | 8.0 | 30.6 | 0.00 | 1.09 | 0.03 | 80 | 1012.2 |
| 20260510151524 | 16 | 110 | 11.3 | 27.4 | 0.00 | 1.12 | 0.03 | 79 | 1012.2 |
| 20260510151010 | 15 | 182 | 11.3 | 27.4 | 0.00 | 1.14 | 0.03 | 81 | 1012.2 |
| 20260510150510 | 15 | 217 | 17.7 | 27.4 | 0.00 | 1.14 | 0.03 | 83 | 1012.1 |
| 20260510150014 | 15 | 214 | 12.9 | 24.1 | 0.00 | 1.17 | 0.03 | 81 | 1012.1 |
| 20260510145504 | 15 | 148 | 11.3 | 20.9 | 0.00 | 1.19 | 0.03 | 85 | 1012.0 |
| 20260510145005 | 14 | 183 | 9.7 | 19.3 | 0.00 | 1.19 | 0.03 | 84 | 1012.0 |
| 20260510144521 | 14 | 175 | 8.0 | 19.3 | 0.00 | 1.22 | 0.03 | 86 | 1012.1 |
| 20260510144008 | 13 | 173 | 6.4 | 19.3 | 0.00 | 1.22 | 0.03 | 85 | 1012.3 |
| 20260510143513 | 13 | 227 | 8.0 | 19.3 | 0.00 | 1.22 | 0.03 | 86 | 1012.4 |
| 20260510143022 | 13 | 212 | 9.7 | 16.1 | 0.00 | 1.22 | 0.03 | 86 | 1012.4 |
| 20260510142508 | 13 | 168 | 6.4 | 20.9 | 0.00 | 1.24 | 0.03 | 86 | 1012.4 |
| 20260510142010 | 13 | 198 | 9.7 | 20.9 | 0.00 | 1.24 | 0.03 | 87 | 1012.4 |
| 20260510141527 | 13 | 223 | 8.0 | 24.1 | 0.00 | 1.24 | 0.03 | 88 | 1012.3 |
| 20260510141014 | 13 | 236 | 9.7 | 24.1 | 0.00 | 1.24 | 0.03 | 87 | 1012.3 |
| 20260510140510 | 13 | 153 | 9.7 | 19.3 | 0.00 | 1.27 | 0.03 | 87 | 1012.2 |
| 20260510140028 | 13 | 238 | 8.0 | 22.5 | 0.00 | 1.27 | 0.03 | 88 | 1012.3 |
| 20260510135511 | 13 | 173 | 8.0 | 22.5 | 0.00 | 1.27 | 0.03 | 87 | 1012.3 |
| 20260510135004 | 13 | 182 | 8.0 | 17.7 | 0.00 | 1.30 | 0.03 | 89 | 1012.3 |
| 20260510134516 | 13 | 309 | 6.4 | 12.9 | 0.00 | 1.30 | 0.03 | 89 | 1012.2 |
| 20260510134004 | 13 | 198 | 4.8 | 17.7 | 0.00 | 1.30 | 0.03 | 89 | 1012.3 |
| 20260510133506 | 13 | 208 | 4.8 | 17.7 | 0.00 | 1.32 | 0.03 | 89 | 1012.4 |
| 20260510133020 | 13 | 214 | 8.0 | 19.3 | 0.00 | 1.32 | 0.03 | 89 | 1012.4 |
| 20260510132511 | 12 | 191 | 9.7 | 19.3 | 0.00 | 1.32 | 0.03 | 88 | 1012.4 |
| 20260510132009 | 12 | 221 | 11.3 | 19.3 | 0.00 | 1.32 | 0.03 | 88 | 1012.4 |
| 20260510131521 | 13 | 194 | 8.0 | 17.7 | 0.00 | 1.32 | 0.03 | 89 | 1012.6 |
| 20260510131010 | 12 | 187 | 8.0 | 19.3 | 0.00 | 1.32 | 0.03 | 90 | 1012.7 |
| 20260510130508 | 12 | 163 | 12.9 | 19.3 | 0.00 | 1.32 | 0.03 | 91 | 1012.5 |
| 20260510130026 | 12 | 162 | 11.3 | 19.3 | 0.00 | 1.32 | 0.03 | 91 | 1012.4 |
| 20260510125509 | 12 | 205 | 8.0 | 16.1 | 0.00 | 1.32 | 0.03 | 92 | 1012.4 |
| 20260510125013 | 12 | 219 | 4.8 | 16.1 | 0.00 | 1.37 | 0.03 | 92 | 1012.3 |
| 20260510124526 | 12 | 191 | 8.0 | 14.5 | 0.00 | 1.37 | 0.03 | 92 | 1012.3 |
| 20260510124011 | 12 | 210 | 4.8 | 16.1 | 0.00 | 1.37 | 0.03 | 93 | 1012.2 |
| 20260510123510 | 12 | 196 | 4.8 | 16.1 | 0.00 | 1.37 | 0.03 | 93 | 1012.4 |
| 20260510123018 | 12 | 189 | 6.4 | 14.5 | 0.00 | 1.37 | 0.03 | 93 | 1012.4 |
| 20260510122509 | 11 | 184 | 8.0 | 14.5 | 0.00 | 1.37 | 0.03 | 94 | 1012.4 |
| 20260510122015 | 11 | 198 | 8.0 | 17.7 | 0.00 | 1.37 | 0.03 | 94 | 1012.4 |
| 20260510121523 | 11 | 193 | 6.4 | 17.7 | 0.00 | 1.37 | 0.03 | 94 | 1012.3 |
| 20260510121012 | 11 | 227 | 6.4 | 12.9 | 0.00 | 1.37 | 0.03 | 94 | 1012.4 |
| 20260510120512 | 11 | 202 | 4.8 | 16.1 | 0.00 | 1.37 | 0.03 | 94 | 1012.5 |
| 20260510120025 | 11 | 210 | 6.4 | 16.1 | 0.00 | 1.37 | 0.03 | 94 | 1012.5 |
| 20260510115507 | 11 | 234 | 6.4 | 11.3 | 0.00 | 1.37 | 0.03 | 95 | 1012.5 |
| 20260510115010 | 11 | 215 | 4.8 | 9.7 | 0.00 | 1.37 | 0.03 | 94 | 1012.5 |
| 20260510114529 | 11 | 219 | 3.2 | 8.0 | 0.00 | 1.37 | 0.03 | 95 | 1012.5 |
| 20260510114009 | 11 | 213 | 3.2 | 8.0 | 0.00 | 1.37 | 0.03 | 95 | 1012.7 |
| 20260510113512 | 11 | 208 | 3.2 | 6.4 | 0.00 | 1.37 | 0.03 | 95 | 1012.6 |
| 20260510113027 | 11 | 221 | 1.6 | 4.8 | 0.00 | 1.37 | 0.03 | 95 | 1012.6 |
| 20260510112508 | 11 | 309 | 0.0 | 9.7 | 0.00 | 1.37 | 0.03 | 95 | 1012.5 |
| 20260510112013 | 11 | 265 | 1.6 | 9.7 | 0.00 | 1.37 | 0.03 | 95 | 1012.3 |
| 20260510111528 | 11 | 190 | 4.8 | 9.7 | 0.00 | 1.37 | 0.03 | 95 | 1012.1 |
| 20260510111007 | 11 | 215 | 4.8 | 11.3 | 0.00 | 1.37 | 0.03 | 95 | 1011.9 |
| 20260510110508 | 11 | 170 | 4.8 | 11.3 | 0.00 | 1.37 | 0.03 | 95 | 1011.9 |
| 20260510110034 | 11 | 185 | 4.8 | 14.5 | 0.00 | 1.37 | 0.03 | 95 | 1012.1 |
| 20260510105509 | 11 | 205 | 4.8 | 14.5 | 0.00 | 1.37 | 0.03 | 95 | 1012.0 |
| 20260510105009 | 11 | 161 | 1.6 | 11.3 | 0.00 | 1.37 | 0.03 | 95 | 1011.9 |
| 20260510104526 | 10 | 215 | 4.8 | 11.3 | 0.00 | 1.37 | 0.03 | 95 | 1011.9 |
| 20260510104005 | 10 | 221 | 4.8 | 11.3 | 0.00 | 1.37 | 0.03 | 96 | 1011.9 |
| 20260510103503 | 10 | 217 | 1.6 | 6.4 | 0.00 | 1.37 | 0.03 | 96 | 1011.7 |
| 20260510103010 | 10 | 249 | 0.0 | 9.7 | 0.00 | 1.37 | 0.03 | 96 | 1011.6 |
| 20260510102504 | 10 | 221 | 3.2 | 11.3 | 0.00 | 1.37 | 0.03 | 95 | 1011.5 |
| 20260510102007 | 10 | 229 | 4.8 | 14.5 | 0.00 | 1.37 | 0.03 | 95 | 1011.3 |
| 20260510101515 | 10 | 227 | 4.8 | 14.5 | 0.00 | 1.37 | 0.03 | 95 | 1011.3 |
| 20260510101004 | 10 | 245 | 6.4 | 16.1 | 0.00 | 1.37 | 0.03 | 96 | 1011.3 |
| 20260510100502 | 10 | 178 | 6.4 | 16.1 | 0.00 | 1.37 | 0.03 | 96 | 1011.0 |
| 20260510100004 | 10 | 214 | 9.7 | 17.7 | 0.00 | 1.37 | 0.03 | 96 | 1010.9 |
| 20260510095506 | 10 | 212 | 11.3 | 17.7 | 0.00 | 1.37 | 0.03 | 96 | 1010.8 |
| 20260510095004 | 10 | 218 | 9.7 | 17.7 | 0.00 | 1.37 | 0.03 | 96 | 1010.9 |
| 20260510094503 | 10 | 218 | 9.7 | 19.3 | 0.00 | 1.37 | 0.03 | 96 | 1010.9 |
| 20260510094003 | 10 | 213 | 9.7 | 19.3 | 0.00 | 1.37 | 0.03 | 96 | 1010.8 |
| 20260510093503 | 10 | 212 | 11.3 | 17.7 | 0.00 | 1.37 | 0.03 | 96 | 1010.7 |
| 20260510093009 | 10 | 215 | 11.3 | 19.3 | 0.00 | 1.37 | 0.03 | 96 | 1010.7 |
| 20260510092507 | 10 | 219 | 11.3 | 22.5 | 0.00 | 1.37 | 0.03 | 96 | 1010.8 |
| 20260510092004 | 10 | 211 | 11.3 | 22.5 | 0.00 | 1.37 | 0.03 | 96 | 1010.5 |
| 20260510091512 | 10 | 220 | 8.0 | 14.5 | 0.00 | 1.37 | 0.03 | 96 | 1010.4 |
| 20260510091005 | 10 | 219 | 6.4 | 14.5 | 0.00 | 1.37 | 0.03 | 96 | 1010.5 |
| 20260510090506 | 10 | 234 | 6.4 | 14.5 | 0.00 | 1.37 | 0.03 | 96 | 1010.8 |
| 20260510090020 | 10 | 225 | 6.4 | 11.3 | 0.00 | 1.37 | 0.03 | 96 | 1010.4 |
| 20260510085506 | 10 | 207 | 4.8 | 11.3 | 0.00 | 1.37 | 0.03 | 96 | 1010.7 |
| 20260510085003 | 10 | 221 | 1.6 | 6.4 | 0.00 | 1.37 | 0.03 | 96 | 1010.4 |
| 20260510084505 | 10 | 217 | 1.6 | 6.4 | 0.00 | 1.37 | 0.03 | 96 | 1010.8 |
| 20260510084003 | 10 | 187 | 1.6 | 8.0 | 0.00 | 1.37 | 0.03 | 96 | 1010.9 |
| 20260510083503 | 10 | 221 | 3.2 | 9.7 | 0.00 | 1.37 | 0.03 | 96 | 1011.1 |
| 20260510083004 | 10 | 218 | 4.8 | 9.7 | 0.00 | 1.37 | 0.03 | 96 | 1011.2 |
| 20260510082503 | 10 | 219 | 3.2 | 8.0 | 0.00 | 1.37 | 0.03 | 96 | 1011.1 |
| 20260510082005 | 10 | 212 | 3.2 | 8.0 | 0.00 | 1.37 | 0.03 | 96 | 1011.1 |
| 20260510081511 | 10 | 225 | 3.2 | 8.0 | 0.00 | 1.37 | 0.03 | 96 | 1011.3 |
| 20260510081005 | 10 | 216 | 4.8 | 8.0 | 0.00 | 1.37 | 0.03 | 96 | 1011.3 |
| 20260510080507 | 9 | 238 | 4.8 | 8.0 | 0.00 | 1.37 | 0.03 | 95 | 1011.2 |
| 20260510080014 | 9 | 225 | 3.2 | 6.4 | 0.00 | 1.37 | 0.03 | 95 | 1011.1 |
| 20260510075512 | 9 | 225 | 3.2 | 6.4 | 0.00 | 1.37 | 0.03 | 96 | 1011.0 |
| 20260510075007 | 10 | 196 | 1.6 | 9.7 | 0.00 | 1.37 | 0.03 | 96 | 1011.0 |
| 20260510074520 | 10 | 221 | 4.8 | 9.7 | 0.00 | 1.37 | 0.03 | 96 | 1011.2 |
| 20260510074008 | 9 | 219 | 4.8 | 9.7 | 0.00 | 1.37 | 0.03 | 95 | 1011.2 |
| 20260510073515 | 9 | 219 | 4.8 | 9.7 | 0.00 | 1.37 | 0.03 | 96 | 1011.1 |
| 20260510073005 | 9 | 215 | 0.0 | 4.8 | 0.00 | 1.37 | 0.03 | 96 | 1011.0 |
| 20260510072503 | 9 | 67 | 0.0 | 4.8 | 0.00 | 1.37 | 0.03 | 96 | 1011.0 |
| 20260510072003 | 9 | 9 | 1.6 | 4.8 | 0.00 | 1.37 | 0.03 | 96 | 1010.9 |
| 20260510071508 | 8 | 22 | 3.2 | 4.8 | 0.00 | 1.37 | 0.03 | 95 | 1010.9 |
| 20260510071003 | 8 | 41 | 1.6 | 6.4 | 0.00 | 1.37 | 0.03 | 95 | 1010.7 |
| 20260510070503 | 9 | 193 | 3.2 | 6.4 | 0.00 | 1.37 | 0.03 | 95 | 1010.7 |
| 20260510070023 | 9 | 229 | 4.8 | 6.4 | 0.00 | 1.37 | 0.03 | 95 | 1010.7 |
| 20260510065504 | 9 | 232 | 3.2 | 4.8 | 0.00 | 1.37 | 0.03 | 95 | 1010.7 |
| 20260510065005 | 9 | 234 | 1.6 | 4.8 | 0.00 | 1.37 | 0.03 | 95 | 1010.7 |
| 20260510064524 | 9 | 232 | 3.2 | 4.8 | 0.00 | 1.37 | 0.03 | 95 | 1010.9 |
| 20260510064004 | 9 | 221 | 1.6 | 4.8 | 0.00 | 1.37 | 0.03 | 95 | 1010.9 |
| 20260510063508 | 9 | 137 | 0.0 | 4.8 | 0.00 | 1.37 | 0.03 | 95 | 1010.9 |
| 20260510063022 | 9 | 153 | 0.0 | 4.8 | 0.00 | 1.37 | 0.03 | 95 | 1011.0 |
| 20260510062510 | 9 | 22 | 1.6 | 6.4 | 0.00 | 1.37 | 0.03 | 95 | 1011.1 |
| 20260510062010 | 9 | 34 | 3.2 | 6.4 | 0.00 | 1.37 | 0.03 | 95 | 1011.1 |
| 20260510061526 | 9 | 9 | 1.6 | 4.8 | 0.00 | 1.37 | 0.03 | 95 | 1011.1 |
| 20260510061001 | 9 | 110 | 3.2 | 4.8 | 0.00 | 1.37 | 0.03 | 95 | 1011.0 |
| 20260510060505 | 9 | 265 | 1.6 | 4.8 | 0.00 | 1.37 | 0.03 | 95 | 1011.1 |
| 20260510060012 | 9 | 217 | 1.6 | 4.8 | 0.00 | 1.37 | 0.03 | 95 | 1011.1 |
| 20260510055504 | 9 | 221 | 1.6 | 4.8 | 0.00 | 1.37 | 0.03 | 95 | 1011.2 |
| 20260510055003 | 9 | 265 | 3.2 | 4.8 | 0.00 | 1.37 | 0.03 | 95 | 1011.1 |
| 20260510054522 | 9 | 205 | 1.6 | 4.8 | 0.00 | 1.37 | 0.03 | 95 | 1011.1 |
| 20260510054007 | 9 | 265 | 1.6 | 4.8 | 0.00 | 1.37 | 0.03 | 95 | 1011.3 |
| 20260510053505 | 9 | 196 | 1.6 | 4.8 | 0.00 | 1.37 | 0.03 | 95 | 1011.2 |
| 20260510053019 | 9 | 146 | 1.6 | 4.8 | 0.00 | 1.37 | 0.03 | 95 | 1011.2 |
| 20260510052507 | 9 | 119 | 0.0 | 4.8 | 0.00 | 1.37 | 0.03 | 95 | 1011.3 |
| 20260510052011 | 9 | 59 | 0.0 | 4.8 | 0.00 | 1.37 | 0.03 | 95 | 1011.4 |
| 20260510051536 | 9 | 83 | 3.2 | 4.8 | 0.03 | 1.37 | 0.03 | 95 | 1011.3 |
| 20260510051013 | 9 | 93 | 0.0 | 4.8 | 0.03 | 1.37 | 0.03 | 95 | 1011.2 |
| 20260510050509 | 9 | 51 | 0.0 | 4.8 | 0.03 | 1.37 | 0.03 | 95 | 1011.3 |
| 20260510050026 | 9 | 319 | 1.6 | 4.8 | 0.03 | 1.37 | 0.03 | 95 | 1011.2 |
| 20260510045504 | 9 | 325 | 0.0 | 4.8 | 0.03 | 1.37 | 0.03 | 95 | 1011.2 |
| 20260510045005 | 9 | 309 | 0.0 | 4.8 | 0.03 | 1.37 | 0.03 | 95 | 1011.3 |
| 20260510044520 | 9 | 64 | 1.6 | 4.8 | 0.03 | 1.37 | 0.03 | 95 | 1011.3 |
| 20260510044004 | 9 | 342 | 0.0 | 3.2 | 0.03 | 1.37 | 0.03 | 95 | 1011.3 |
| 20260510043507 | 9 | 300 | 1.6 | 3.2 | 0.03 | 1.37 | 0.03 | 95 | 1011.4 |
| 20260510043017 | 9 | 309 | 0.0 | 3.2 | 0.03 | 1.37 | 0.03 | 95 | 1011.4 |
| 20260510042507 | 9 | 309 | 0.0 | 3.2 | 0.03 | 1.37 | 0.03 | 95 | 1011.4 |
| 20260510042014 | 9 | 291 | 1.6 | 3.2 | 0.03 | 1.37 | 0.03 | 95 | 1011.4 |
| 20260510041522 | 9 | 309 | 0.0 | 3.2 | 0.00 | 1.32 | 0.00 | 95 | 1011.4 |
| 20260510041007 | 9 | 221 | 0.0 | 3.2 | 0.00 | 1.32 | 0.00 | 95 | 1011.5 |
| 20260510040509 | 9 | 238 | 0.0 | 3.2 | 0.00 | 1.32 | 0.00 | 95 | 1011.5 |
| 20260510040026 | 9 | 137 | 1.6 | 3.2 | 0.00 | 1.32 | 0.00 | 95 | 1011.5 |
| 20260510035508 | 9 | 146 | 1.6 | 3.2 | 0.00 | 1.32 | 1.32 | 95 | 1011.5 |
| 20260510035010 | 9 | 51 | 0.0 | 3.2 | 0.00 | 1.32 | 1.32 | 95 | 1011.5 |
| 20260510034527 | 9 | 309 | 0.0 | 3.2 | 0.00 | 1.32 | 1.32 | 95 | 1011.6 |
| 20260510034009 | 9 | 76 | 1.6 | 3.2 | 0.00 | 1.32 | 1.32 | 95 | 1011.4 |
| 20260510033511 | 9 | 93 | 0.0 | 3.2 | 0.00 | 1.32 | 1.32 | 95 | 1011.4 |
| 20260510033019 | 9 | 238 | 0.0 | 4.8 | 0.00 | 1.32 | 1.32 | 95 | 1011.4 |
| 20260510032504 | 9 | 67 | 1.6 | 6.4 | 0.00 | 1.32 | 1.32 | 95 | 1011.4 |
| 20260510032007 | 9 | 34 | 0.0 | 6.4 | 0.00 | 1.32 | 1.32 | 95 | 1011.4 |
| 20260510031519 | 9 | 51 | 3.2 | 6.4 | 0.00 | 1.32 | 1.32 | 95 | 1011.4 |
| 20260510031006 | 9 | 76 | 1.6 | 4.8 | 0.00 | 1.32 | 1.32 | 95 | 1011.3 |
| 20260510030507 | 9 | 9 | 0.0 | 4.8 | 0.00 | 1.32 | 1.32 | 95 | 1011.4 |
| 20260510030023 | 9 | 9 | 1.6 | 4.8 | 0.00 | 1.32 | 1.32 | 95 | 1011.4 |
| 20260510025510 | 9 | 34 | 1.6 | 4.8 | 0.00 | 1.32 | 1.32 | 95 | 1011.4 |
| 20260510025006 | 9 | 22 | 0.0 | 4.8 | 0.00 | 1.32 | 1.32 | 95 | 1011.4 |
| 20260510024526 | 9 | 298 | 1.6 | 4.8 | 0.00 | 1.32 | 1.32 | 95 | 1011.5 |
| 20260510024010 | 9 | 26 | 1.6 | 4.8 | 0.00 | 1.32 | 1.32 | 95 | 1011.6 |
| 20260510023509 | 9 | 61 | 1.6 | 3.2 | 0.00 | 1.32 | 1.32 | 95 | 1011.6 |
| 20260510023026 | 8 | 26 | 0.0 | 3.2 | 0.00 | 1.32 | 1.32 | 95 | 1011.7 |
| 20260510022511 | 9 | 93 | 0.0 | 4.8 | 0.00 | 1.32 | 1.32 | 95 | 1011.8 |
| 20260510022012 | 8 | 108 | 1.6 | 4.8 | 0.00 | 1.32 | 1.32 | 95 | 1011.9 |
| 20260510021516 | 9 | 212 | 0.0 | 4.8 | 0.00 | 1.32 | 1.32 | 95 | 1011.8 |
| 20260510021007 | 9 | 221 | 1.6 | 6.4 | 0.00 | 1.32 | 1.32 | 95 | 1011.9 |
| 20260510020506 | 9 | 232 | 1.6 | 6.4 | 0.00 | 1.32 | 1.32 | 95 | 1011.9 |
| 20260510020022 | 9 | 217 | 3.2 | 4.8 | 0.00 | 1.32 | 1.32 | 95 | 1011.9 |
| 20260510015507 | 9 | 232 | 1.6 | 6.4 | 0.00 | 1.32 | 1.32 | 95 | 1011.9 |
| 20260510015006 | 9 | 234 | 3.2 | 6.4 | 0.00 | 1.32 | 1.32 | 95 | 1012.0 |
| 20260510014525 | 9 | 215 | 1.6 | 4.8 | 0.00 | 1.32 | 1.32 | 95 | 1011.9 |
| 20260510014005 | 9 | 221 | 0.0 | 3.2 | 0.00 | 1.32 | 1.32 | 95 | 1011.9 |
| 20260510013502 | 9 | 319 | 1.6 | 3.2 | 0.00 | 1.32 | 1.32 | 95 | 1011.9 |
| 20260510013008 | 9 | 9 | 0.0 | 3.2 | 0.00 | 1.32 | 1.32 | 95 | 1011.9 |
| 20260510012502 | 9 | 221 | 0.0 | 3.2 | 0.00 | 1.32 | 1.32 | 95 | 1011.9 |
| 20260510012002 | 9 | 247 | 1.6 | 3.2 | 0.00 | 1.32 | 1.32 | 95 | 1011.9 |
| 20260510011528 | 9 | 51 | 0.0 | 1.6 | 0.00 | 1.32 | 1.32 | 95 | 1011.9 |
| 20260510011007 | 9 | 51 | 0.0 | 3.2 | 0.00 | 1.32 | 1.32 | 95 | 1011.8 |
| 20260510010507 | 9 | 51 | 0.0 | 3.2 | 0.00 | 1.32 | 1.32 | 95 | 1011.8 |
| 20260510010017 | 9 | 93 | 0.0 | 3.2 | 0.00 | 1.32 | 1.32 | 95 | 1011.7 |
| 20260510005507 | 9 | 51 | 0.0 | 3.2 | 0.00 | 1.32 | 1.32 | 95 | 1011.8 |
| 20260510005006 | 9 | 34 | 0.0 | 4.8 | 0.00 | 1.32 | 1.32 | 94 | 1011.8 |
| 20260510004522 | 9 | 300 | 1.6 | 6.4 | 0.00 | 1.32 | 1.32 | 94 | 1011.6 |
| 20260510004001 | 9 | 34 | 1.6 | 6.4 | 0.00 | 1.32 | 1.32 | 94 | 1011.5 |
| 20260510003504 | 9 | 22 | 0.0 | 4.8 | 0.00 | 1.32 | 1.32 | 94 | 1011.5 |
| 20260510003009 | 9 | 309 | 1.6 | 6.4 | 0.00 | 1.32 | 1.32 | 94 | 1011.4 |
| 20260510002502 | 9 | 67 | 1.6 | 6.4 | 0.00 | 1.32 | 1.32 | 94 | 1011.3 |
| 20260510002006 | 9 | 48 | 3.2 | 6.4 | 0.00 | 1.32 | 1.32 | 94 | 1011.3 |
| 20260510001512 | 9 | 34 | 3.2 | 6.4 | 0.00 | 1.32 | 1.32 | 94 | 1011.3 |
| 20260510001003 | 9 | 26 | 3.2 | 6.4 | 0.00 | 1.32 | 1.32 | 94 | 1011.3 |
| 20260510000506 | 9 | 56 | 1.6 | 6.4 | 0.00 | 1.32 | 1.32 | 94 | 1011.2 |
| 20260510000018 | 9 | 61 | 0.0 | 3.2 | 0.00 | 1.32 | 1.32 | 94 | 1011.2 |
| 20260509235513 | 9 | 137 | 0.0 | 3.2 | 0.00 | 1.32 | 1.32 | 94 | 1011.3 |
| 20260509235007 | 9 | 205 | 0.0 | 3.2 | 0.00 | 1.32 | 1.32 | 94 | 1011.3 |
| 20260509234520 | 9 | 221 | 0.0 | 6.4 | 0.00 | 1.32 | 1.32 | 94 | 1011.2 |
| 20260509234007 | 9 | 193 | 1.6 | 6.4 | 0.00 | 1.32 | 1.32 | 94 | 1011.2 |
| 20260509233506 | 9 | 225 | 3.2 | 4.8 | 0.00 | 1.32 | 1.32 | 94 | 1011.2 |
| 20260509233024 | 9 | 178 | 1.6 | 4.8 | 0.00 | 1.32 | 1.32 | 94 | 1011.1 |
| 20260509232508 | 9 | 190 | 1.6 | 6.4 | 0.00 | 1.32 | 1.32 | 94 | 1011.2 |
| 20260509232003 | 9 | 146 | 1.6 | 6.4 | 0.00 | 1.32 | 1.32 | 94 | 1011.2 |
| 20260509231509 | 9 | 219 | 3.2 | 6.4 | 0.00 | 1.32 | 1.32 | 94 | 1011.2 |
| 20260509231003 | 9 | 137 | 1.6 | 6.4 | 0.00 | 1.32 | 1.32 | 94 | 1011.1 |
| 20260509230504 | 9 | 236 | 1.6 | 4.8 | 0.00 | 1.32 | 1.32 | 94 | 1011.1 |
| 20260509230012 | 9 | 26 | 0.0 | 6.4 | 0.00 | 1.32 | 1.32 | 94 | 1011.2 |
| 20260509225507 | 9 | 265 | 0.0 | 6.4 | 0.00 | 1.32 | 1.32 | 94 | 1011.2 |
| 20260509225007 | 9 | 131 | 3.2 | 4.8 | 0.00 | 1.32 | 1.32 | 94 | 1011.2 |
| 20260509224520 | 9 | 153 | 1.6 | 4.8 | 0.00 | 1.32 | 1.32 | 94 | 1011.2 |
| 20260509224007 | 9 | 108 | 1.6 | 6.4 | 0.00 | 1.32 | 1.32 | 94 | 1011.2 |
| 20260509223509 | 9 | 9 | 0.0 | 6.4 | 0.00 | 1.32 | 1.32 | 94 | 1011.3 |
| 20260509223023 | 9 | 26 | 1.6 | 4.8 | 0.00 | 1.32 | 1.32 | 94 | 1011.1 |
| 20260509222506 | 9 | 34 | 1.6 | 4.8 | 0.00 | 1.32 | 1.32 | 94 | 1011.0 |
| 20260509222010 | 9 | 265 | 0.0 | 3.2 | 0.00 | 1.32 | 1.32 | 94 | 1010.9 |
| 20260509221537 | 8 | 111 | 0.0 | 4.8 | 0.00 | 1.32 | 1.32 | 94 | 1010.9 |
| 20260509221008 | 8 | 61 | 1.6 | 6.4 | 0.00 | 1.32 | 1.32 | 94 | 1011.1 |
| 20260509220502 | 8 | 44 | 3.2 | 6.4 | 0.00 | 1.32 | 1.32 | 94 | 1011.2 |
| 20260509220010 | 8 | 47 | 3.2 | 6.4 | 0.00 | 1.32 | 1.32 | 94 | 1011.2 |
| 20260509215505 | 8 | 57 | 1.6 | 6.4 | 0.03 | 1.32 | 1.32 | 94 | 1011.3 |
| 20260509215006 | 8 | 48 | 3.2 | 6.4 | 0.03 | 1.32 | 1.32 | 94 | 1011.3 |
| 20260509214516 | 8 | 19 | 1.6 | 6.4 | 0.03 | 1.32 | 1.32 | 94 | 1011.3 |
| 20260509214006 | 8 | 119 | 0.0 | 6.4 | 0.03 | 1.32 | 1.32 | 94 | 1011.4 |
| 20260509213508 | 8 | 129 | 0.0 | 4.8 | 0.03 | 1.32 | 1.32 | 94 | 1011.5 |
| 20260509213020 | 8 | 232 | 1.6 | 4.8 | 0.05 | 1.32 | 1.32 | 94 | 1011.5 |
| 20260509212513 | 8 | 9 | 1.6 | 6.4 | 0.05 | 1.32 | 1.32 | 94 | 1011.6 |
| 20260509212014 | 8 | 178 | 3.2 | 8.0 | 0.05 | 1.32 | 1.32 | 94 | 1011.5 |
| 20260509211521 | 8 | 250 | 1.6 | 11.3 | 0.08 | 1.32 | 1.32 | 94 | 1011.7 |
| 20260509211007 | 8 | 9 | 3.2 | 11.3 | 0.08 | 1.32 | 1.32 | 94 | 1011.6 |
| 20260509210506 | 8 | 178 | 3.2 | 8.0 | 0.08 | 1.32 | 1.32 | 94 | 1011.8 |
| 20260509210025 | 8 | 126 | 1.6 | 6.4 | 0.10 | 1.32 | 1.32 | 94 | 1011.8 |
| 20260509205510 | 8 | 221 | 0.0 | 6.4 | 0.10 | 1.32 | 1.32 | 94 | 1011.9 |
| 20260509205009 | 8 | 161 | 1.6 | 6.4 | 0.13 | 1.32 | 1.32 | 94 | 1011.9 |
| 20260509204511 | 8 | 190 | 1.6 | 6.4 | 0.13 | 1.32 | 1.32 | 93 | 1011.9 |
| 20260509204007 | 8 | 178 | 1.6 | 6.4 | 0.15 | 1.32 | 1.32 | 94 | 1012.0 |
| 20260509203505 | 8 | 227 | 3.2 | 9.7 | 0.18 | 1.32 | 1.32 | 93 | 1012.0 |
| 20260509203019 | 8 | 205 | 4.8 | 9.7 | 0.15 | 1.30 | 1.30 | 94 | 1012.0 |
| 20260509202506 | 8 | 201 | 3.2 | 8.0 | 0.18 | 1.30 | 1.30 | 94 | 1012.0 |
| 20260509202008 | 8 | 205 | 3.2 | 8.0 | 0.20 | 1.30 | 1.30 | 94 | 1012.1 |
| 20260509201520 | 8 | 190 | 4.8 | 8.0 | 0.20 | 1.27 | 1.27 | 94 | 1012.1 |
| 20260509201005 | 8 | 194 | 3.2 | 8.0 | 0.20 | 1.27 | 1.27 | 94 | 1012.2 |
| 20260509200509 | 8 | 165 | 3.2 | 8.0 | 0.23 | 1.27 | 1.27 | 94 | 1012.2 |
| 20260509200026 | 8 | 188 | 3.2 | 6.4 | 0.20 | 1.24 | 1.24 | 93 | 1012.2 |
| 20260509195508 | 8 | 205 | 1.6 | 4.8 | 0.20 | 1.22 | 1.22 | 93 | 1012.2 |
| 20260509195009 | 8 | 144 | 0.0 | 6.4 | 0.20 | 1.19 | 1.19 | 94 | 1012.2 |
| 20260509194527 | 8 | 165 | 1.6 | 6.4 | 0.20 | 1.19 | 1.19 | 94 | 1012.3 |
| 20260509194001 | 8 | 221 | 1.6 | 4.8 | 0.20 | 1.17 | 1.17 | 93 | 1012.3 |
| 20260509193502 | 8 | 144 | 1.6 | 4.8 | 0.20 | 1.14 | 1.14 | 93 | 1012.3 |
| 20260509193003 | 8 | 93 | 1.6 | 6.4 | 0.20 | 1.14 | 1.14 | 94 | 1012.4 |
| 20260509192502 | 8 | 93 | 1.6 | 6.4 | 0.20 | 1.12 | 1.12 | 94 | 1012.5 |
| 20260509192005 | 8 | 158 | 1.6 | 4.8 | 0.20 | 1.09 | 1.09 | 94 | 1012.5 |
| 20260509191504 | 8 | 93 | 1.6 | 4.8 | 0.18 | 1.07 | 1.07 | 93 | 1012.6 |
| 20260509191004 | 8 | 165 | 1.6 | 4.8 | 0.20 | 1.07 | 1.07 | 93 | 1012.6 |
| 20260509190502 | 8 | 119 | 1.6 | 3.2 | 0.18 | 1.04 | 1.04 | 93 | 1012.7 |
| 20260509190004 | 8 | 221 | 0.0 | 4.8 | 0.20 | 1.04 | 1.04 | 94 | 1012.7 |
| 20260509185503 | 8 | 80 | 1.6 | 4.8 | 0.20 | 1.02 | 1.02 | 93 | 1012.8 |
| 20260509185003 | 8 | 51 | 3.2 | 4.8 | 0.18 | 0.99 | 0.99 | 93 | 1012.8 |
| 20260509184507 | 8 | 85 | 1.6 | 8.0 | 0.20 | 0.99 | 0.99 | 93 | 1012.8 |
| 20260509184002 | 8 | 76 | 3.2 | 8.0 | 0.20 | 0.97 | 0.97 | 93 | 1012.8 |
| 20260509183502 | 8 | 61 | 1.6 | 4.8 | 0.18 | 0.94 | 0.94 | 93 | 1012.9 |
| 20260509183004 | 8 | 137 | 0.0 | 3.2 | 0.20 | 0.94 | 0.94 | 92 | 1012.9 |
| 20260509182504 | 8 | 161 | 0.0 | 4.8 | 0.20 | 0.91 | 0.91 | 92 | 1012.9 |
| 20260509182003 | 8 | 93 | 3.2 | 4.8 | 0.20 | 0.89 | 0.89 | 93 | 1012.8 |
| 20260509181504 | 7 | 9 | 0.0 | 3.2 | 0.20 | 0.89 | 0.89 | 92 | 1012.8 |
| 20260509181002 | 7 | 165 | 0.0 | 4.8 | 0.20 | 0.86 | 0.86 | 92 | 1012.9 |
| 20260509180501 | 7 | 178 | 0.0 | 6.4 | 0.23 | 0.86 | 0.86 | 92 | 1013.0 |
| 20260509180003 | 7 | 205 | 1.6 | 8.0 | 0.20 | 0.84 | 0.84 | 92 | 1013.0 |
| 20260509175505 | 7 | 153 | 1.6 | 8.0 | 0.20 | 0.81 | 0.81 | 92 | 1013.1 |
| 20260509175002 | 7 | 187 | 3.2 | 6.4 | 0.23 | 0.81 | 0.81 | 92 | 1013.2 |
| 20260509174503 | 7 | 234 | 1.6 | 8.0 | 0.23 | 0.79 | 0.79 | 92 | 1013.3 |
| 20260509174002 | 7 | 208 | 3.2 | 9.7 | 0.23 | 0.76 | 0.76 | 92 | 1013.3 |
| 20260509173504 | 7 | 160 | 3.2 | 9.7 | 0.23 | 0.76 | 0.76 | 92 | 1013.4 |
| 20260509173011 | 7 | 221 | 4.8 | 9.7 | 0.23 | 0.74 | 0.74 | 92 | 1013.4 |
| 20260509172503 | 7 | 178 | 1.6 | 6.4 | 0.23 | 0.71 | 0.71 | 93 | 1013.5 |
| 20260509172004 | 7 | 178 | 1.6 | 6.4 | 0.23 | 0.69 | 0.69 | 93 | 1013.5 |
| 20260509171503 | 7 | 215 | 1.6 | 6.4 | 0.23 | 0.69 | 0.69 | 93 | 1013.5 |
| 20260509171003 | 7 | 247 | 3.2 | 6.4 | 0.23 | 0.66 | 0.66 | 93 | 1013.6 |
| 20260509170504 | 7 | 132 | 1.6 | 6.4 | 0.20 | 0.64 | 0.64 | 93 | 1013.5 |
| 20260509170012 | 7 | 153 | 1.6 | 4.8 | 0.23 | 0.64 | 0.64 | 93 | 1013.6 |
| 20260509165502 | 7 | 153 | 1.6 | 4.8 | 0.20 | 0.61 | 0.61 | 93 | 1013.6 |
| 20260509165004 | 7 | 126 | 1.6 | 4.8 | 0.20 | 0.58 | 0.58 | 93 | 1013.7 |
| 20260509164504 | 7 | 80 | 0.0 | 4.8 | 0.20 | 0.56 | 0.56 | 92 | 1013.7 |
| 20260509164002 | 7 | 132 | 1.6 | 4.8 | 0.18 | 0.53 | 0.53 | 93 | 1013.6 |
| 20260509163502 | 7 | 34 | 1.6 | 6.4 | 0.20 | 0.53 | 0.53 | 92 | 1013.7 |
| 20260509163010 | 7 | 61 | 3.2 | 6.4 | 0.18 | 0.51 | 0.51 | 92 | 1013.7 |
| 20260509162503 | 7 | 334 | 0.0 | 3.2 | 0.18 | 0.48 | 0.48 | 93 | 1013.8 |
| 20260509162005 | 7 | 41 | 0.0 | 6.4 | 0.18 | 0.46 | 0.46 | 93 | 1013.8 |
| 20260509161509 | 7 | 51 | 1.6 | 8.0 | 0.20 | 0.46 | 0.46 | 93 | 1013.9 |
| 20260509161003 | 7 | 41 | 3.2 | 8.0 | 0.20 | 0.43 | 0.43 | 93 | 1013.9 |
| 20260509160504 | 7 | 63 | 4.8 | 8.0 | 0.20 | 0.43 | 0.43 | 93 | 1014.0 |
| 20260509160011 | 7 | 55 | 3.2 | 4.8 | 0.20 | 0.41 | 0.41 | 92 | 1014.1 |
| 20260509155503 | 7 | 303 | 1.6 | 4.8 | 0.23 | 0.41 | 0.41 | 93 | 1014.2 |
| 20260509155007 | 7 | 51 | 1.6 | 4.8 | 0.20 | 0.38 | 0.38 | 92 | 1014.2 |
| 20260509154503 | 7 | 51 | 0.0 | 4.8 | 0.20 | 0.36 | 0.36 | 93 | 1014.2 |